Location: HF.RADOM.PL
(51.4000°N, 21.1600°E)
Time: 21:18:19
(UTC+02:00)

NOAA 19 - Visible Passes

Search period start: 28 September 2021 00:00
Search period end: 08 October 2021 00:00
Orbit: 841 x 860 km, 99.2° (Epoch: 28 September)

Date Brightness Start Highest point End Pass type
(mag) Time Alt. Az. Time Alt. Az. Time Alt. Az.
28 Sep 7.8 20:23:20 10° SW 20:27:25 21° W 20:31:31 10° NW visible
29 Sep 7.5 20:10:57 10° SSW 20:15:28 25° W 20:20:01 10° NW visible
30 Sep 7.1 19:58:42 10° SSW 20:03:33 31° W 20:08:27 10° NNW visible
01 Oct 6.8 19:46:32 10° SSW 19:51:40 37° W 19:56:48 10° NNW visible
02 Oct 6.4 19:34:28 10° S 19:39:47 46° W 19:45:07 10° NNW visible
03 Oct 6.0 19:22:29 10° S 19:27:55 56° WSW 19:33:24 10° NNW visible
04 Oct 5.6 19:10:34 10° S 19:16:06 69° WSW 19:21:38 10° NNW visible
04 Oct 8.2 20:55:38 10° WSW 20:57:47 12° W 20:59:56 10° WNW visible
05 Oct 5.4 18:58:43 10° SSE 19:04:17 83° WSW 19:09:51 10° NNW visible
05 Oct 8.0 20:42:37 10° WSW 20:45:47 15° W 20:48:57 10° NW visible
06 Oct 5.2 18:46:56 10° SSE 18:52:29 82° ENE 18:58:03 10° NNW visible
06 Oct 7.8 20:29:58 10° SW 20:33:48 19° W 20:37:40 10° NW visible
07 Oct 5.2 18:35:13 10° SSE 18:40:42 68° ENE 18:46:13 10° NNW visible
07 Oct 7.5 20:17:31 10° SW 20:21:51 23° W 20:26:12 10° NW visible
